#timestamp,LO_Frequency,Hit,StdDev 
1617985415.7,286047014.0,P
1617985435.6,286047013.9,P
1617985455.4,286047011.0,P
1617985475.3,286047011.8,Y
1617985495.1,286046996.6,P
1617985515.8,286046999.1,N
1617985535.7,286046998.4,N
1617985555.5,286047001.1,N
1617985575.4,286047000.6,N
1617985595.2,286047002.3,N
1617985615.0,286047000.2,N
1617985615.9,286047000.2,N
1617985635.8,286046999.7,N
1617985655.6,286047002.3,N
1617985675.4,286047002.3,N
1617985695.3,286047001.5,N
1617985715.1,286047002.7,N
1617985735.9,286047001.3,N
1617985755.7,286047001.4,N
1617985775.5,286047003.0,N
1617985795.4,286047005.9,N
1617985815.2,286047005.9,N
1617985835.0,286047002.9,N
1617985835.9,286047002.9,N
1617985855.8,286047005.1,N
1617985875.6,286047005.8,N
1617985895.5,286047004.9,N
1617985915.3,286047005.2,N
1617985935.1,286047005.4,N
1617985955.9,286047007.6,N
1617985975.7,286047006.7,N
1617985995.5,286047008.3,N
1617986015.4,286047008.6,N
1617986035.2,286047010.4,N
1617986055.1,286047010.6,Y
1617986056.0,286047010.6,P
1617986075.8,286047006.5,N
1617986095.6,286047006.8,N
1617986115.5,286047008.2,Y
1617986135.3,286047002.1,P
1617986155.2,286047001.3,N
1617986175.9,286047001.8,N
1617986195.7,286047001.6,N
1617986215.6,286047003.0,N
1617986235.4,286047005.1,N
1617986255.2,286047005.5,N
1617986275.1,286047004.4,N
1617986276.0,286047004.4,N
1617986295.8,286047003.4,N
1617986315.7,286047004.7,N
1617986335.5,286047004.7,N
1617986355.3,286047005.7,Y
1617986375.2,286047001.7,P
1617986395.0,286047003.6,P
1617986395.9,286047003.6,P
1617986415.7,286047003.0,Y
1617986435.6,286047000.6,P
1617986455.4,286047002.8,N
1617986475.3,286047003.8,P
1617986495.1,286047003.9,Y
1617986515.8,286047000.3,P
1617986535.7,286047000.3,N
1617986555.5,286046999.7,N
1617986575.4,286047002.7,N
1617986595.2,286047000.2,N
1617986615.0,286047001.4,N
1617986615.9,286047001.4,N
1617986635.8,286047003.8,Y
1617986655.6,286047002.6,P
1617986675.4,286047004.1,P
1617986695.3,286047001.8,N
1617986715.1,286047002.4,N
1617986735.9,286047004.3,Y
1617986755.7,286046998.4,P
1617986775.5,286047001.0,N
1617986795.4,286047002.6,N
1617986815.2,286047000.2,N
1617986835.1,286047002.0,N
1617986836.0,286047002.0,N
1617986855.8,286047001.3,N
1617986875.6,286047004.4,Y
1617986895.5,286047004.4,P
1617986915.3,286047004.3,N
1617986935.1,286047003.3,N
1617986955.9,286047003.1,N
1617986975.7,286047005.9,Y
1617986995.6,286047002.5,P
1617987015.4,286047001.7,P
1617987035.2,286047002.2,P
1617987055.1,286047002.6,Y
1617987056.0,286047002.6,P
1617987075.8,286046996.6,P
1617987095.7,286046998.7,N
1617987115.5,286047000.9,N
1617987135.3,286047000.9,N
1617987155.2,286046999.9,N
1617987175.0,286047002.3,N
1617987175.9,286047002.3,N
1617987195.7,286047001.8,N
1617987215.6,286047001.4,N
1617987235.4,286047002.0,N
1617987255.3,286047001.3,N
1617987275.1,286047003.8,N
1617987276.0,286047003.8,N
1617987295.8,286047004.0,N
1617987315.7,286047005.9,Y
1617987335.5,286047003.9,P
1617987355.4,286047001.4,N
1617987375.2,286047004.0,P
1617987395.0,286047004.2,Y
1617987426.0,286046998.2,E
1617987435.9,286047000.3,N
1617987455.7,286047001.6,P
1617987475.6,286047001.6,N
1617987495.4,286047001.3,N
1617987515.2,286047001.4,N
1617987535.1,286047003.6,Y
1617987536.0,286047003.6,P
1617987555.8,286047001.5,N
1617987575.7,286047004.1,P
1617987595.5,286047002.5,N
